Regional Weather Roundup
Issued by NWS

Home | Current Version | Previous Version | Text Only | Print | Product List | Glossary Off
Versions: 1 2 3 4 5 6 7 8 9 10 11 12 13 14 15 16 17 18 19 20 21 22 23 24 25 26 27 28 29 30 31 32 33 34 35 36 37 38 39 40 41 42 43 44 45 46 47 48 49 50

000
ASUS44 KMEG 030610
RWRTN
TENNESSEE HOURLY STATE WEATHER ROUNDUP
NATIONAL WEATHER SERVICE MEMPHIS TN
100 AM CDT SUN MAY 03 2015

TNZ002-004-019-021-049-052-054-088>092-030700-
WEST TENNESSEE

CITY           SKY/WX    TMP DP  RH WIND       PRES   REMARKS
MEMPHIS INTL   CLEAR     59  46  62 S3        30.06S
NWS MEMPHIS      N/A     54 N/A N/A MISG        N/A
JACKSON        CLEAR     50  47  89 CALM      30.06S
DYERSBURG      CLEAR     57  39  51 CALM      30.06S
PARIS          CLEAR     52  46  82 CALM      30.06F
LEXINGTON      CLEAR     52  48  87 CALM      30.06S
$$

TNZ008-025-027-028-033-062-065-066-030700-
NORTH MIDDLE TENNESSEE

CITY           SKY/WX    TMP DP  RH WIND       PRES   REMARKS
NASHVILLE      CLEAR     56  50  80 CALM      30.08S
CLARKSVILLE    CLEAR     53  49  86 CALM      30.06S
SMYRNA         CLEAR     51  50  97 CALM      30.09S
COOKEVILLE     CLEAR     46  45  93 CALM      30.09S
CROSSVILLE     CLEAR     50  42  74 CALM      30.13S
$$

TNZ061-075-076-078-094-096-097-030700-
SOUTH MIDDLE TENNESSEE

CITY           SKY/WX    TMP DP  RH WIND       PRES   REMARKS
FAYETTEVILLE   CLEAR     54  46  76 CALM      30.09S
TULLAHOMA      CLEAR     48  45  87 CALM      30.10F
WINCHESTER     CLEAR     50  48  93 CALM      30.10S
MCMINNVILLE    CLEAR     48  48 100 CALM      30.10S
COLUMBIA       CLEAR     52  48  87 CALM      30.06F
SHELBYVILLE    CLEAR     52  50  93 CALM      30.09F
$$

TNZ017-018-042-046-047-030700-
NORTHEAST TENNESSEE

CITY           SKY/WX    TMP DP  RH WIND       PRES   REMARKS
TRI CITIES     CLEAR     44  40  85 CALM      30.14S
ELIZABETHTON   PTCLDY    45  37  76 CALM      30.15S
$$

TNZ012-013-036-069-073-074-030700-
CENTRAL EAST TENNESSEE

CITY           SKY/WX    TMP DP  RH WIND       PRES   REMARKS
KNOXVILLE      CLEAR     54  47  77 CALM      30.10S
OAK RIDGE      CLEAR     51  47  86 CALM      30.12S
GATLINBURG     CLEAR     46  43  87 CALM      30.10F
MORRISTOWN     CLEAR     52  45  76 CALM      30.12F
$$

TNZ083-085-099-030700-
SOUTHEAST TENNESSEE

CITY           SKY/WX    TMP DP  RH WIND       PRES   REMARKS
CHATTANOOGA    CLEAR     54  50  86 CALM      30.10S
$$

SKY/WX REPORTED AS FAIR MEANS FEW OR NO CLOUDS BELOW
12 THOUSAND FEET.




USA.gov is the U.S. government's official web portal to all federal, state and local government web resources and services.